This is the latest recevied weather packets stored in our database for station/object KG7FOQ-13. If no packets are shown the sender has not sent any weather packets the latest 10 day(s).
| Time | Temp. | Humidity | Pressure | Rain* | Wind** | Luminosity | Snow |
|---|---|---|---|---|---|---|---|
| 1778181282 | 20° C | 33% | 1015.5 hPa | 0 mm | - | - | - |
| 1778181250 | 20° C | 33% | 1015.5 hPa | 0 mm | - | - | - |
| 1778180950 | 20° C | 33% | 1015.6 hPa | 0 mm | - | - | - |
| 1778180649 | 20° C | 33% | 1015.6 hPa | 0 mm | - | - | - |
| 1778180047 | 20° C | 33% | 1015.8 hPa | 0 mm | - | - | - |
| 1778179747 | 20° C | 33% | 1015.7 hPa | 0 mm | - | - | - |
| 1778179446 | 20° C | 33% | 1015.8 hPa | 0 mm | - | - | - |
| 1778179146 | 20° C | 34% | 1015.7 hPa | 0 mm | - | - | - |
| 1778178846 | 20° C | 32% | 1015.8 hPa | 0 mm | - | - | - |
| 1778178545 | 20° C | 33% | 1015.9 hPa | 0 mm | - | - | - |
| 1778178282 | 20° C | 31% | 1016 hPa | 0 mm | - | - | - |
| 1778178244 | 20° C | 31% | 1016 hPa | 0 mm | - | - | - |
| 1778177944 | 19.44° C | 32% | 1016 hPa | 0 mm | - | - | - |
| 1778177343 | 20° C | 34% | 1016 hPa | 0 mm | - | - | - |
| 1778177041 | 20.56° C | 33% | 1016.2 hPa | 0 mm | - | - | - |
| 1778176741 | 19.44° C | 35% | 1016.3 hPa | 0 mm | - | - | - |
| 1778176440 | 19.44° C | 35% | 1016.2 hPa | 0 mm | - | - | - |
| 1778176140 | 19.44° C | 34% | 1016.3 hPa | 0 mm | - | - | - |
| 1778175839 | 19.44° C | 35% | 1016.3 hPa | 0 mm | - | - | - |
| 1778175538 | 18.89° C | 34% | 1016.3 hPa | 0 mm | - | - | - |
| 1778175238 | 18.89° C | 36% | 1016.3 hPa | 0 mm | - | - | - |
| 1778174636 | 18.89° C | 35% | 1016.3 hPa | 0 mm | - | - | - |
| 1778174335 | 18.33° C | 35% | 1016.4 hPa | 0 mm | - | - | - |
| 1778174035 | 18.33° C | 36% | 1016.4 hPa | 0 mm | - | - | - |
| 1778173734 | 18.33° C | 35% | 1016.4 hPa | 0 mm | - | - | - |
* Rain latest hour (hover to see other rain measurements)
** Current wind speed in m/s (hover to see current wind gust speed)